Time,TemperatureF,DewpointF,PressureIn,WindDirection,WindDirectionDegrees,WindSpeedMPH,WindSpeedGustMPH,Humidity,HourlyPrecipIn,Conditions,Clouds,dailyrainin,SoftwareType,DateUTC
2013-08-25 00:01:00,53.6,0.0,30.29,WNW,293,1.1,1.3,0,0.00,,,0.00,WUHU216HW,2013-08-25 04:01:00,
2013-08-25 00:02:00,53.6,0.0,30.29,WNW,293,0.9,1.3,0,0.00,,,0.00,WUHU216HW,2013-08-25 04:02:00,
2013-08-25 00:07:00,53.5,0.0,30.29,WNW,293,0.0,1.3,0,0.00,,,0.00,WUHU216HW,2013-08-25 04:07:00,
2013-08-25 00:12:00,53.3,0.0,30.29,WNW,293,0.2,1.3,0,0.00,,,0.00,WUHU216HW,2013-08-25 04:12:00,
2013-08-25 00:17:00,53.1,0.0,30.29,West,270,0.7,0.7,0,0.00,,,0.00,WUHU216HW,2013-08-25 04:17:00,
2013-08-25 00:22:00,52.9,0.0,30.29,WNW,293,0.0,0.9,0,0.00,,,0.00,WUHU216HW,2013-08-25 04:22:00,
2013-08-25 00:27:00,52.7,0.0,30.29,West,270,1.1,1.1,0,0.00,,,0.00,WUHU216HW,2013-08-25 04:27:00,
2013-08-25 00:32:00,52.6,0.0,30.29,West,270,0.0,1.1,0,0.00,,,0.00,WUHU216HW,2013-08-25 04:32:00,
2013-08-25 00:37:00,52.6,0.0,30.29,West,270,0.4,1.1,0,0.00,,,0.00,WUHU216HW,2013-08-25 04:37:00,
2013-08-25 00:42:00,52.4,0.0,30.29,WNW,293,0.4,0.9,0,0.00,,,0.00,WUHU216HW,2013-08-25 04:42:00,
2013-08-25 00:47:00,52.2,0.0,30.28,West,270,0.4,1.1,0,0.00,,,0.00,WUHU216HW,2013-08-25 04:47:00,
2013-08-25 00:52:00,52.2,0.0,30.28,WNW,293,0.4,1.1,0,0.00,,,0.00,WUHU216HW,2013-08-25 04:52:00,
2013-08-25 00:57:00,52.2,0.0,30.28,WNW,293,0.7,1.1,0,0.00,,,0.00,WUHU216HW,2013-08-25 04:57:00,
2013-08-25 01:02:00,52.2,0.0,30.28,WNW,293,1.1,1.1,0,0.00,,,0.00,WUHU216HW,2013-08-25 05:02:00,
2013-08-25 01:07:00,52.2,0.0,30.28,WNW,293,0.4,1.1,0,0.00,,,0.00,WUHU216HW,2013-08-25 05:07:00,
2013-08-25 01:12:00,52.2,0.0,30.28,WNW,293,0.0,1.1,0,0.00,,,0.00,WUHU216HW,2013-08-25 05:12:00,
2013-08-25 01:17:00,52.2,0.0,30.28,WNW,293,0.2,0.7,0,0.00,,,0.00,WUHU216HW,2013-08-25 05:17:00,
2013-08-25 01:22:00,52.0,0.0,30.28,WNW,293,0.4,1.1,0,0.00,,,0.00,WUHU216HW,2013-08-25 05:22:00,
2013-08-25 01:27:00,51.8,0.0,30.28,WNW,293,0.0,1.1,0,0.00,,,0.00,WUHU216HW,2013-08-25 05:27:00,
2013-08-25 01:32:00,51.8,0.0,30.27,WNW,293,0.0,0.7,0,0.00,,,0.00,WUHU216HW,2013-08-25 05:32:00,
2013-08-25 01:37:00,51.8,0.0,30.28,WNW,293,0.9,0.9,0,0.00,,,0.00,WUHU216HW,2013-08-25 05:37:00,
2013-08-25 01:42:00,51.7,0.0,30.27,WNW,293,0.7,0.9,0,0.00,,,0.00,WUHU216HW,2013-08-25 05:42:00,
2013-08-25 01:47:00,51.7,0.0,30.27,West,270,0.7,0.9,0,0.00,,,0.00,WUHU216HW,2013-08-25 05:47:00,
2013-08-25 01:52:00,51.5,0.0,30.27,West,270,0.9,0.9,0,0.00,,,0.00,WUHU216HW,2013-08-25 05:52:00,
2013-08-25 01:57:00,51.5,0.0,30.27,WNW,293,0.0,1.1,0,0.00,,,0.00,WUHU216HW,2013-08-25 05:57:00,
2013-08-25 02:02:00,51.5,0.0,30.27,WNW,293,0.2,1.1,0,0.00,,,0.00,WUHU216HW,2013-08-25 06:02:00,
2013-08-25 02:07:00,51.3,0.0,30.27,WNW,293,0.0,0.4,0,0.00,,,0.00,WUHU216HW,2013-08-25 06:07:00,
2013-08-25 02:12:00,50.9,0.0,30.26,WNW,293,0.4,0.4,0,0.00,,,0.00,WUHU216HW,2013-08-25 06:12:00,
2013-08-25 02:17:00,50.8,0.0,30.26,WNW,293,0.4,0.7,0,0.00,,,0.00,WUHU216HW,2013-08-25 06:17:00,
2013-08-25 02:22:00,50.6,0.0,30.26,WNW,293,0.2,0.7,0,0.00,,,0.00,WUHU216HW,2013-08-25 06:22:00,
2013-08-25 02:27:00,50.4,0.0,30.26,WNW,293,0.4,0.7,0,0.00,,,0.00,WUHU216HW,2013-08-25 06:27:00,
2013-08-25 02:32:00,50.4,0.0,30.27,WNW,293,0.2,0.7,0,0.00,,,0.00,WUHU216HW,2013-08-25 06:32:00,
2013-08-25 02:37:00,50.4,0.0,30.26,WNW,293,0.0,0.7,0,0.00,,,0.00,WUHU216HW,2013-08-25 06:37:00,
2013-08-25 02:42:00,50.2,0.0,30.26,WNW,293,0.4,0.7,0,0.00,,,0.00,WUHU216HW,2013-08-25 06:42:00,
2013-08-25 02:47:00,50.2,0.0,30.26,WNW,293,0.4,0.7,0,0.00,,,0.00,WUHU216HW,2013-08-25 06:47:00,
2013-08-25 02:52:00,50.2,0.0,30.26,WNW,293,0.0,0.4,0,0.00,,,0.00,WUHU216HW,2013-08-25 06:52:00,
2013-08-25 02:57:00,50.2,0.0,30.26,WNW,293,0.0,0.4,0,0.00,,,0.00,WUHU216HW,2013-08-25 06:57:00,
2013-08-25 03:02:00,50.0,0.0,30.26,WNW,293,0.7,0.9,0,0.00,,,0.00,WUHU216HW,2013-08-25 07:02:00,
2013-08-25 03:07:00,50.0,0.0,30.26,WNW,293,0.7,0.9,0,0.00,,,0.00,WUHU216HW,2013-08-25 07:07:00,
2013-08-25 03:12:00,50.2,0.0,30.26,WNW,293,0.4,0.9,0,0.00,,,0.00,WUHU216HW,2013-08-25 07:12:00,
2013-08-25 03:17:00,50.2,0.0,30.26,West,270,0.0,0.9,0,0.00,,,0.00,WUHU216HW,2013-08-25 07:17:00,
2013-08-25 03:22:00,50.2,0.0,30.26,WNW,293,0.7,1.1,0,0.00,,,0.00,WUHU216HW,2013-08-25 07:22:00,
2013-08-25 03:27:00,50.2,0.0,30.26,West,270,0.4,1.1,0,0.00,,,0.00,WUHU216HW,2013-08-25 07:27:00,
2013-08-25 03:32:00,50.2,0.0,30.26,West,270,0.0,0.9,0,0.00,,,0.00,WUHU216HW,2013-08-25 07:32:00,
2013-08-25 03:37:00,50.4,0.0,30.26,West,270,0.0,0.7,0,0.00,,,0.00,WUHU216HW,2013-08-25 07:37:00,
2013-08-25 03:42:00,50.4,0.0,30.26,WNW,293,0.4,0.7,0,0.00,,,0.00,WUHU216HW,2013-08-25 07:42:00,
2013-08-25 03:47:00,50.4,0.0,30.26,WNW,293,0.4,0.7,0,0.00,,,0.00,WUHU216HW,2013-08-25 07:47:00,
2013-08-25 03:52:00,50.4,0.0,30.27,WNW,293,0.7,1.1,0,0.00,,,0.00,WUHU216HW,2013-08-25 07:52:00,
2013-08-25 03:57:00,50.2,0.0,30.26,WNW,293,0.0,1.1,0,0.00,,,0.00,WUHU216HW,2013-08-25 07:57:00,
2013-08-25 04:02:00,50.2,0.0,30.26,WNW,293,0.0,0.7,0,0.00,,,0.00,WUHU216HW,2013-08-25 08:02:00,
2013-08-25 04:07:00,50.0,0.0,30.26,WNW,293,0.0,0.2,0,0.00,,,0.00,WUHU216HW,2013-08-25 08:07:00,
2013-08-25 04:12:00,50.0,0.0,30.27,WNW,293,0.4,1.1,0,0.00,,,0.00,WUHU216HW,2013-08-25 08:12:00,
2013-08-25 04:17:00,50.0,0.0,30.27,West,270,0.0,1.3,0,0.00,,,0.00,WUHU216HW,2013-08-25 08:17:00,
2013-08-25 04:22:00,49.9,0.0,30.27,West,270,0.0,1.3,0,0.00,,,0.00,WUHU216HW,2013-08-25 08:22:00,
2013-08-25 04:27:00,49.9,0.0,30.27,West,270,0.2,0.4,0,0.00,,,0.00,WUHU216HW,2013-08-25 08:27:00,
2013-08-25 04:32:00,49.7,0.0,30.27,West,270,0.0,0.4,0,0.00,,,0.00,WUHU216HW,2013-08-25 08:32:00,
2013-08-25 04:37:00,49.7,0.0,30.27,West,270,0.0,0.0,0,0.00,,,0.00,WUHU216HW,2013-08-25 08:37:00,
2013-08-25 04:42:00,49.5,0.0,30.28,West,270,0.4,0.4,0,0.00,,,0.00,WUHU216HW,2013-08-25 08:42:00,
2013-08-25 04:47:00,49.3,0.0,30.28,West,270,0.0,0.4,0,0.00,,,0.00,WUHU216HW,2013-08-25 08:47:00,
2013-08-25 04:52:00,49.3,0.0,30.28,West,270,0.0,0.4,0,0.00,,,0.00,WUHU216HW,2013-08-25 08:52:00,
2013-08-25 04:57:00,49.5,0.0,30.28,West,270,0.0,0.0,0,0.00,,,0.00,WUHU216HW,2013-08-25 08:57:00,
2013-08-25 05:02:00,49.3,0.0,30.28,West,270,0.0,0.0,0,0.00,,,0.00,WUHU216HW,2013-08-25 09:02:00,
2013-08-25 05:07:00,49.1,0.0,30.28,West,270,0.0,0.0,0,0.00,,,0.00,WUHU216HW,2013-08-25 09:07:00,
2013-08-25 05:12:00,49.0,0.0,30.28,West,270,0.0,0.0,0,0.00,,,0.00,WUHU216HW,2013-08-25 09:12:00,
2013-08-25 05:17:00,48.8,0.0,30.28,West,270,0.0,0.0,0,0.00,,,0.00,WUHU216HW,2013-08-25 09:17:00,
2013-08-25 05:22:00,48.4,0.0,30.29,West,270,0.0,0.0,0,0.00,,,0.00,WUHU216HW,2013-08-25 09:22:00,
2013-08-25 05:27:00,48.2,0.0,30.29,West,270,0.0,0.4,0,0.00,,,0.00,WUHU216HW,2013-08-25 09:27:00,
2013-08-25 05:32:00,48.1,0.0,30.29,West,270,0.0,0.4,0,0.00,,,0.00,WUHU216HW,2013-08-25 09:32:00,
2013-08-25 05:37:00,47.9,0.0,30.29,West,270,0.0,0.0,0,0.00,,,0.00,WUHU216HW,2013-08-25 09:37:00,
2013-08-25 05:42:00,47.9,0.0,30.30,West,270,0.0,0.0,0,0.00,,,0.00,WUHU216HW,2013-08-25 09:42:00,
2013-08-25 05:47:00,47.7,0.0,30.30,West,270,0.0,0.0,0,0.00,,,0.00,WUHU216HW,2013-08-25 09:47:00,
2013-08-25 05:52:00,47.5,0.0,30.30,West,270,0.0,0.0,0,0.00,,,0.00,WUHU216HW,2013-08-25 09:52:00,
2013-08-25 05:57:00,47.3,0.0,30.30,West,270,0.0,0.0,0,0.00,,,0.00,WUHU216HW,2013-08-25 09:57:00,
2013-08-25 06:02:00,47.2,0.0,30.31,West,270,0.0,0.0,0,0.00,,,0.00,WUHU216HW,2013-08-25 10:02:00,
2013-08-25 06:07:00,47.2,0.0,30.31,West,270,0.4,0.4,0,0.00,,,0.00,WUHU216HW,2013-08-25 10:07:00,
2013-08-25 06:12:00,47.2,0.0,30.31,West,270,0.0,0.4,0,0.00,,,0.00,WUHU216HW,2013-08-25 10:12:00,
2013-08-25 06:17:00,47.0,0.0,30.31,West,270,0.0,0.4,0,0.00,,,0.00,WUHU216HW,2013-08-25 10:17:00,
2013-08-25 06:22:00,47.0,0.0,30.31,West,270,0.0,0.0,0,0.00,,,0.00,WUHU216HW,2013-08-25 10:22:00,
2013-08-25 06:27:00,47.0,0.0,30.31,West,270,0.0,0.0,0,0.00,,,0.00,WUHU216HW,2013-08-25 10:27:00,
2013-08-25 06:32:00,47.0,0.0,30.31,West,270,0.0,0.0,0,0.00,,,0.00,WUHU216HW,2013-08-25 10:32:00,
2013-08-25 06:37:00,47.2,0.0,30.31,West,270,0.0,0.0,0,0.00,,,0.00,WUHU216HW,2013-08-25 10:37:00,
2013-08-25 06:42:00,47.3,0.0,30.31,West,270,0.0,0.0,0,0.00,,,0.00,WUHU216HW,2013-08-25 10:42:00,
2013-08-25 06:47:00,47.5,0.0,30.31,West,270,0.0,0.0,0,0.00,,,0.00,WUHU216HW,2013-08-25 10:47:00,
2013-08-25 06:52:00,47.7,0.0,30.31,West,270,0.0,0.0,0,0.00,,,0.00,WUHU216HW,2013-08-25 10:52:00,
2013-08-25 06:57:00,47.9,0.0,30.31,West,270,0.0,0.0,0,0.00,,,0.00,WUHU216HW,2013-08-25 10:57:00,
2013-08-25 07:02:00,47.9,0.0,30.31,West,270,0.0,0.0,0,0.00,,,0.00,WUHU216HW,2013-08-25 11:02:00,
2013-08-25 07:07:00,48.1,0.0,30.31,West,270,0.0,0.0,0,0.00,,,0.00,WUHU216HW,2013-08-25 11:07:00,
2013-08-25 07:12:00,48.4,0.0,30.31,West,270,0.0,0.0,0,0.00,,,0.00,WUHU216HW,2013-08-25 11:12:00,
2013-08-25 07:17:00,48.6,0.0,30.31,West,270,0.0,0.0,0,0.00,,,0.00,WUHU216HW,2013-08-25 11:17:00,
2013-08-25 07:22:00,49.0,0.0,30.32,West,270,0.0,0.0,0,0.00,,,0.00,WUHU216HW,2013-08-25 11:22:00,
2013-08-25 07:27:00,49.3,0.0,30.32,West,270,0.0,0.0,0,0.00,,,0.00,WUHU216HW,2013-08-25 11:27:00,
2013-08-25 07:32:00,49.7,0.0,30.32,West,270,0.0,0.0,0,0.00,,,0.00,WUHU216HW,2013-08-25 11:32:00,
2013-08-25 07:37:00,50.0,0.0,30.32,SSE,158,0.7,0.7,0,0.00,,,0.00,WUHU216HW,2013-08-25 11:37:00,
2013-08-25 07:42:00,50.4,0.0,30.31,SSE,158,0.0,0.7,0,0.00,,,0.00,WUHU216HW,2013-08-25 11:42:00,
2013-08-25 07:47:00,50.9,0.0,30.32,SSE,158,0.0,0.7,0,0.00,,,0.00,WUHU216HW,2013-08-25 11:47:00,
2013-08-25 07:52:00,51.5,0.0,30.32,NW,315,0.0,1.1,0,0.00,,,0.00,WUHU216HW,2013-08-25 11:52:00,
2013-08-25 07:57:00,52.2,0.0,30.32,NNE,23,0.0,1.1,0,0.00,,,0.00,WUHU216HW,2013-08-25 11:57:00,
2013-08-25 08:02:00,52.9,0.0,30.32,SW,225,0.0,0.9,0,0.00,,,0.00,WUHU216HW,2013-08-25 12:02:00,
2013-08-25 08:07:00,53.6,0.0,30.32,ESE,113,0.4,1.1,0,0.00,,,0.00,WUHU216HW,2013-08-25 12:07:00,
2013-08-25 08:12:00,54.2,0.0,30.32,West,270,0.0,2.0,0,0.00,,,0.00,WUHU216HW,2013-08-25 12:12:00,
2013-08-25 08:17:00,54.9,0.0,30.31,North,0,0.0,2.0,0,0.00,,,0.00,WUHU216HW,2013-08-25 12:17:00,
2013-08-25 08:22:00,55.4,0.0,30.31,SE,135,0.4,1.6,0,0.00,,,0.00,WUHU216HW,2013-08-25 12:22:00,
2013-08-25 08:27:00,56.2,0.0,30.31,South,180,0.0,1.1,0,0.00,,,0.00,WUHU216HW,2013-08-25 12:27:00,
2013-08-25 08:32:00,56.9,0.0,30.31,SE,135,0.4,0.7,0,0.00,,,0.00,WUHU216HW,2013-08-25 12:32:00,
2013-08-25 08:37:00,58.0,0.0,30.31,SW,225,0.2,1.8,0,0.00,,,0.00,WUHU216HW,2013-08-25 12:37:00,
2013-08-25 08:42:00,58.9,0.0,30.31,West,270,0.4,1.8,0,0.00,,,0.00,WUHU216HW,2013-08-25 12:42:00,
2013-08-25 08:47:00,59.6,0.0,30.31,ESE,113,0.4,1.8,0,0.00,,,0.00,WUHU216HW,2013-08-25 12:47:00,
2013-08-25 08:52:00,60.3,0.0,30.31,East,90,0.7,1.8,0,0.00,,,0.00,WUHU216HW,2013-08-25 12:52:00,
2013-08-25 08:57:00,60.7,0.0,30.31,WNW,293,0.2,1.1,0,0.00,,,0.00,WUHU216HW,2013-08-25 12:57:00,
2013-08-25 09:02:00,61.0,0.0,30.31,East,90,1.1,1.1,0,0.00,,,0.00,WUHU216HW,2013-08-25 13:02:00,
2013-08-25 09:07:00,61.7,0.0,30.32,SW,225,0.0,1.1,0,0.00,,,0.00,WUHU216HW,2013-08-25 13:07:00,
2013-08-25 09:12:00,62.3,0.0,30.31,South,180,0.0,1.3,0,0.00,,,0.00,WUHU216HW,2013-08-25 13:12:00,
2013-08-25 09:17:00,62.8,0.0,30.32,South,180,0.7,1.8,0,0.00,,,0.00,WUHU216HW,2013-08-25 13:17:00,
2013-08-25 09:22:00,63.2,0.0,30.31,West,270,0.4,1.8,0,0.00,,,0.00,WUHU216HW,2013-08-25 13:22:00,
2013-08-25 09:27:00,63.4,0.0,30.31,SE,135,1.1,2.5,0,0.00,,,0.00,WUHU216HW,2013-08-25 13:27:00,
2013-08-25 09:32:00,63.9,0.0,30.32,West,270,0.9,2.5,0,0.00,,,0.00,WUHU216HW,2013-08-25 13:32:00,
2013-08-25 09:37:00,64.4,0.0,30.32,West,270,1.8,2.2,0,0.00,,,0.00,WUHU216HW,2013-08-25 13:37:00,
2013-08-25 09:42:00,64.8,0.0,30.32,SSW,203,2.0,2.2,0,0.00,,,0.00,WUHU216HW,2013-08-25 13:42:00,
2013-08-25 09:47:00,65.5,0.0,30.33,WSW,248,1.8,2.5,0,0.00,,,0.00,WUHU216HW,2013-08-25 13:47:00,
2013-08-25 09:52:00,66.1,0.0,30.33,South,180,0.0,2.5,0,0.00,,,0.00,WUHU216HW,2013-08-25 13:52:00,
2013-08-25 09:57:00,66.6,0.0,30.32,SW,225,2.9,3.8,0,0.00,,,0.00,WUHU216HW,2013-08-25 13:57:00,
2013-08-25 10:02:00,67.1,0.0,30.32,NNE,23,1.1,3.8,0,0.00,,,0.00,WUHU216HW,2013-08-25 14:02:00,
2013-08-25 10:07:00,67.7,0.0,30.32,South,180,1.1,3.4,0,0.00,,,0.00,WUHU216HW,2013-08-25 14:07:00,
2013-08-25 10:12:00,68.4,0.0,30.32,SSE,158,2.0,3.6,0,0.00,,,0.00,WUHU216HW,2013-08-25 14:12:00,
2013-08-25 10:17:00,70.0,0.0,30.32,South,180,1.6,3.6,0,0.00,,,0.00,WUHU216HW,2013-08-25 14:17:00,
2013-08-25 10:22:00,72.0,0.0,30.31,SE,135,1.1,2.5,0,0.00,,,0.00,WUHU216HW,2013-08-25 14:22:00,
2013-08-25 10:27:00,74.0,0.0,30.31,SE,135,1.8,3.8,0,0.00,,,0.00,WUHU216HW,2013-08-25 14:27:00,
2013-08-25 10:32:00,75.4,0.0,30.31,SSE,158,0.4,3.8,0,0.00,,,0.00,WUHU216HW,2013-08-25 14:32:00,
2013-08-25 10:37:00,76.9,0.0,30.31,ENE,68,0.4,2.5,0,0.00,,,0.00,WUHU216HW,2013-08-25 14:37:00,
2013-08-25 10:42:00,77.8,0.0,30.31,NW,315,0.9,2.2,0,0.00,,,0.00,WUHU216HW,2013-08-25 14:42:00,
2013-08-25 10:47:00,78.3,0.0,30.31,NW,315,0.7,2.0,0,0.00,,,0.00,WUHU216HW,2013-08-25 14:47:00,
2013-08-25 10:52:00,78.5,0.0,30.31,SW,225,1.8,2.0,0,0.00,,,0.00,WUHU216HW,2013-08-25 14:52:00,
2013-08-25 10:57:00,78.8,0.0,30.31,ESE,113,0.7,3.4,0,0.00,,,0.00,WUHU216HW,2013-08-25 14:57:00,
2013-08-25 11:02:00,79.2,0.0,30.31,WNW,293,2.5,3.4,0,0.00,,,0.00,WUHU216HW,2013-08-25 15:02:00,
2013-08-25 11:07:00,79.6,0.0,30.31,South,180,2.5,2.5,0,0.00,,,0.00,WUHU216HW,2013-08-25 15:07:00,
2013-08-25 11:12:00,79.7,0.0,30.30,ENE,68,3.4,3.4,0,0.00,,,0.00,WUHU216HW,2013-08-25 15:12:00,
2013-08-25 11:17:00,80.1,0.0,30.30,ESE,113,2.0,3.4,0,0.00,,,0.00,WUHU216HW,2013-08-25 15:17:00,
2013-08-25 11:22:00,79.9,0.0,30.29,South,180,1.1,3.4,0,0.00,,,0.00,WUHU216HW,2013-08-25 15:22:00,
2013-08-25 11:27:00,79.9,0.0,30.29,South,180,1.1,2.0,0,0.00,,,0.00,WUHU216HW,2013-08-25 15:27:00,